Home > Weather > Lens > Past weeks

Flag for France Past Weather in Lens, Nord-Pas-de-Calais, France — Yesterday and Last 2 Weeks

Now
55 °F

Fog.


Feels Like: 52 °F
Forecast: 57 / 66 °F
Wind: 14 mph from North

Location: Lille Airport

Current Time: May 30, 2016 at 7:07:18 AM

Latest Report: May 30, 2016 at 6:30 AM


Visibility: 2 mi

Pressure: 29.77 "Hg

Humidity: 100%

Dew Point: 55 °F

Location of LensLocation

Past Weather in Lens — Graph

°F

Lens Temperature Yesterday

Maximum temperature yesterday: 68 °F (at 2:30 PM)
Minimum temperature yesterday: 55 °F (at 2:30 AM)
Average temperature yesterday: 61 °F

High & Low Weather Summary for the Past Weeks

 TemperatureHumidityPressure
High73 °F (May 21, 4:00 PM)100% (May 16, 12:30 AM)30.21 "Hg (May 16, 12:30 AM)
Low37 °F (May 15, 5:30 AM)40% (May 26, 3:30 PM)29.65 "Hg (May 18, 6:00 PM)
Average57 °F77%29.95 "Hg
* Reported May 15 5:00 AM — May 30 5:30 AM, Lens, Weather by CustomWeather, © 2016

Note: Actual official high and low records may vary slightly from our data, if they occured in-between our weather recording intervals... More about our weather records

Advertising

Lens Weather History for the Previous 24 Hours

Scroll right to see more
 ConditionsComfort  
Time TempWeatherWind HumidityBarometerVisibility
5:30 AM
Mon, May 30
55 °FFog.14 mph100%29.77 "Hg3 mi
5:00 AM55 °FFog.14 mph100%29.77 "Hg2 mi
4:30 AM55 °FFog.16 mph94%29.77 "Hg3 mi
4:00 AM55 °FLight rain. Fog.14 mph100%29.77 "Hg2 mi
3:30 AM55 °FDrizzle. Fog.14 mph100%29.77 "Hg2 mi
3:00 AM55 °FFog.14 mph94%29.80 "Hg2 mi
2:30 AM55 °FLight rain. Fog.16 mph100%29.80 "Hg2 mi
2:00 AM55 °FFog.15 mph94%29.80 "Hg3 mi
1:30 AM55 °FLow clouds.12 mph94%29.80 "Hg4 mi
1:00 AM55 °FLow clouds.13 mph94%29.80 "Hg4 mi
12:30 AM55 °FLow clouds.10 mph94%29.80 "Hg4 mi
12:00 AM55 °FFog.12 mph94%29.83 "Hg3 mi
11:30 PM
Sun, May 29
57 °FFog.14 mph88%29.80 "Hg3 mi
11:00 PM57 °FFog.14 mph94%29.80 "Hg3 mi
10:30 PM59 °FFog.13 mph88%29.80 "Hg3 mi
10:00 PM59 °FCloudy.12 mph94%29.80 "Hg4 mi
9:30 PM61 °FFog.9 mph94%29.77 "Hg3 mi
9:00 PM63 °FMore clouds than sun.10 mph88%29.77 "Hg4 mi
8:30 PM63 °FDrizzle. Fog.12 mph94%29.77 "Hg3 mi
8:00 PM64 °FFog.8 mph94%29.77 "Hg2 mi
7:30 PM63 °FLight rain. Fog.6 mph94%29.77 "Hg2 mi
7:00 PM63 °FLight rain. Fog.6 mph94%29.77 "Hg2 mi
6:30 PM61 °FLight rain. Cloudy.7 mph94%29.77 "HgN/A
6:00 PM61 °FThunderstorms. More clouds than sun.6 mph94%29.77 "Hg4 mi
5:30 PM66 °FThunderstorms. Broken clouds.12 mph83%29.77 "Hg4 mi
5:00 PM68 °FThundershowers. Partly sunny.12 mph78%29.74 "Hg5 mi
4:30 PM68 °FBroken clouds.9 mph73%29.74 "Hg5 mi
4:00 PM68 °FPassing clouds.10 mph78%29.74 "Hg4 mi
3:30 PM68 °FScattered clouds.9 mph78%29.74 "Hg4 mi
3:00 PM68 °FMostly cloudy.10 mph73%29.74 "Hg5 mi
2:30 PM68 °FPartly sunny.10 mph73%29.74 "Hg6 mi
2:00 PM66 °FPartly sunny.8 mph78%29.74 "Hg5 mi
1:30 PM66 °FPartly sunny.8 mph78%29.74 "Hg4 mi
1:00 PM66 °FPartly sunny.8 mph78%29.74 "Hg5 mi
12:30 PM64 °FMore clouds than sun.6 mph83%29.74 "Hg4 mi
12:00 PM63 °FFog.8 mph88%29.74 "Hg3 mi
11:30 AM61 °FFog.10 mph94%29.74 "Hg2 mi
11:00 AM61 °FFog.10 mph94%29.74 "Hg2 mi
10:30 AM59 °FLight rain. Fog.10 mph100%29.74 "Hg1 mi
10:00 AM59 °FThunderstorms. Fog.8 mph94%29.74 "Hg1 mi
9:30 AM59 °FThundershowers. Fog.9 mph94%29.77 "Hg1 mi
9:00 AM59 °FFog.8 mph94%29.74 "Hg1 mi
8:30 AM59 °FFog.7 mph94%29.74 "Hg1 mi
8:00 AM57 °FFog.7 mph100%29.77 "Hg1 mi
7:30 AM57 °FFog.9 mph100%29.74 "Hg1 mi
7:00 AM57 °FFog.9 mph100%29.74 "Hg1 mi
Weather by CustomWeather, © 2016

See weather overviewHow to use our weather pages